Flag for U.S.A. Weather past 2 weeks in Duluth, Minnesota, U.S.A.

Now
54 °F

Clear.


Feels Like: 53 °F
Forecast: 56 / 76 °F
Wind: 3 mph from Northeast

Location: Sky Harbor Airport

Current Time: Aug 5, 2015 at 2:10:53 AM

Latest Report: Aug 5, 2015 at 1:34 AM


Visibility: 10 mi

Pressure: 30.09 "Hg

Humidity: 88%

Dew point: 50 °F

Location of DuluthLocation

Historic Weather in Duluth — Graph

°F

Duluth temperature yesterday

Maximum temperature yesterday: 72 °F (at 11:54 AM)
Minimum temperature yesterday: 54 °F (at 10:14 PM)
Average temperature yesterday: 62 °F

Past Weeks' High & Low Weather Summary

 TemperatureHumidityPressure
High90 °F (Jul 26, 1:34 PM)94% (Jul 23, 4:54 AM)30.09 "Hg (Jul 23, 4:54 AM)
Low54 °F (Aug 4, 10:14 PM)35% (Jul 30, 4:14 PM)29.59 "Hg (Aug 2, 8:34 AM)
Average72 °F69%29.88 "Hg
* Reported Jul 21 12:13 AM — Aug 5 12:54 AM, Duluth, Weather by CustomWeather, © 2015

Note: Actual official high and low records may vary slightly from our data, if they occured in-between our weather recording intervals... More about our weather records

Advertising

Duluth weather history for previous 24 hours

 ConditionsComfort  
Time TempWeatherWind HumidityBarometerVisibility
12:54 AM
Wed, Aug 5
54 °FClear.No wind88%30.09 "Hg10 mi
12:33 AM55 °FClear.5 mph88%30.08 "Hg10 mi
12:14 AM55 °FClear.No wind82%30.08 "Hg10 mi
11:33 PM
Tue, Aug 4
54 °FPassing clouds.No wind88%30.08 "Hg10 mi
10:54 PM54 °FClear.9 mph88%30.06 "Hg10 mi
10:14 PM54 °FClear.8 mph88%30.05 "Hg10 mi
9:54 PM55 °FPassing clouds.10 mph82%30.04 "Hg10 mi
9:33 PM55 °FPartly sunny.12 mph82%30.04 "Hg10 mi
9:14 PM55 °FPartly sunny.14 mph82%30.03 "Hg10 mi
8:54 PM55 °FScattered clouds.10 mph88%30.02 "Hg10 mi
8:34 PM55 °FPartly sunny.10 mph88%30.02 "Hg10 mi
8:13 PM55 °FSunny.13 mph88%30.01 "Hg10 mi
7:53 PM55 °FScattered clouds.9 mph88%30.01 "Hg10 mi
7:33 PM55 °FPartly sunny.9 mph88%30.01 "Hg10 mi
7:14 PM55 °FScattered clouds.6 mph88%30.01 "Hg10 mi
6:54 PM55 °FPartly sunny.6 mph88%30.00 "Hg10 mi
6:34 PM55 °FScattered clouds.6 mph88%30.01 "Hg10 mi
6:14 PM57 °FPartly sunny.7 mph82%30.00 "Hg10 mi
5:53 PM61 °FScattered clouds.6 mph77%29.99 "Hg10 mi
5:34 PM61 °FSunny.3 mph72%29.99 "Hg10 mi
5:14 PM63 °FSunny.5 mph73%29.98 "Hg10 mi
4:53 PM63 °FSunny.6 mph73%29.98 "Hg10 mi
4:34 PM63 °FScattered clouds.5 mph73%29.98 "Hg10 mi
3:53 PM63 °FScattered clouds.10 mph73%29.98 "Hg10 mi
3:34 PM64 °FScattered clouds.9 mph68%29.97 "Hg10 mi
3:13 PM66 °FPartly sunny.7 mph64%29.98 "Hg10 mi
2:54 PM66 °FPartly sunny.5 mph60%29.97 "Hg10 mi
2:33 PM70 °FBroken clouds.5 mph57%29.97 "Hg10 mi
2:13 PM68 °FScattered clouds.3 mph64%29.97 "Hg10 mi
1:54 PM70 °FScattered clouds.3 mph57%29.97 "Hg10 mi
1:01 PM68 °FBroken clouds.3 mph60%29.97 "Hg10 mi
12:21 PM72 °FBroken clouds.12 mph57%29.97 "Hg10 mi
12:08 PM72 °FPartly sunny.9 mph53%29.98 "Hg10 mi
11:54 AM72 °FBroken clouds.9 mph57%29.98 "Hg10 mi
11:34 AM70 °FMore clouds than sun.9 mph60%29.98 "Hg10 mi
11:14 AM70 °FMore clouds than sun.7 mph57%29.98 "Hg10 mi
10:54 AM70 °FPartly sunny.10 mph57%29.97 "Hg10 mi
10:34 AM70 °FPartly sunny.7 mph57%29.97 "Hg10 mi
10:13 AM70 °FSunny.5 mph57%29.97 "Hg10 mi
9:54 AM68 °FSunny.7 mph60%29.97 "Hg10 mi
9:34 AM68 °FSunny.3 mph64%29.97 "Hg10 mi
9:13 AM66 °FSunny.No wind68%29.97 "Hg10 mi
8:54 AM64 °FSunny.5 mph73%29.97 "Hg10 mi
8:34 AM63 °FSunny.5 mph77%29.96 "Hg10 mi
8:14 AM63 °FSunny.3 mph73%29.95 "Hg10 mi
7:53 AM61 °FSunny.No wind77%29.94 "Hg10 mi
7:34 AM61 °FSunny.No wind77%29.94 "Hg10 mi
7:14 AM61 °FSunny.7 mph77%29.94 "Hg10 mi
6:53 AM57 °FSunny.7 mph88%29.94 "Hg10 mi
6:34 AM57 °FClear.No wind82%29.94 "Hg10 mi
6:14 AM61 °FClear.8 mph77%29.93 "Hg10 mi
5:53 AM61 °FClear.9 mph77%29.92 "Hg10 mi
5:34 AM61 °FClear.10 mph77%29.91 "Hg10 mi
5:14 AM61 °FClear.7 mph77%29.91 "Hg10 mi
4:53 AM61 °FClear.13 mph77%29.91 "Hg10 mi
4:34 AM61 °FClear.9 mph77%29.91 "Hg10 mi
4:14 AM61 °FClear.8 mph77%29.91 "Hg10 mi
3:53 AM61 °FPassing clouds.10 mph83%29.91 "Hg10 mi
3:34 AM61 °FClear.6 mph83%29.91 "Hg10 mi
3:14 AM61 °FClear.9 mph83%29.90 "Hg10 mi
2:53 AM57 °FClear.7 mph88%29.91 "Hg10 mi
2:34 AM57 °FClear.5 mph88%29.91 "Hg10 mi
2:14 AM57 °FClear.3 mph88%29.91 "Hg10 mi
Weather by CustomWeather, © 2015

See weather overviewHow to use our weather pages